WISE (36119 NORAD) Tracking and Keplerian Element Data

This shows tracking and keplerian element data for the satellite.

Feedback or suggestion? Click here.




ElementValue
Catalog36119
NameWISE
Epoch Orbit47667
Epoch Day198.65063379
Epoch Year2018
RAAN230.8101
Inclination97.4115
Eccentricity0.0002999
Argument of Perigee29.9158
Mean Anonmoly330.2253
Mean Motion15.29120553
Decay Rate6.76E-06
L11 36119U 09071A 18198.65063379 .00000676 00000-0 26570-4 0 9996
L22 36119 97.4115 230.8101 0002999 29.9158 330.2253 15.29120553476678

Live tracking and technical data element details for WISE (NORAD 36119). WISE can be tracked NOW for your location showing map with azimuth and elevation plus other details from your city location.

Track the satellite on the map from your city or location and see movement details for azimuth, elevation, latitude, longitude, range, height, and movement on the map or in text.







IsCatalogInMostPopularTable: catalog: 36119, numindb: 39
Update: records affected: 1



GetName: 36119 WISE

Hit Count: updated at: Thu, 19 Jul 2018 21:17:56 GMT